Theta_e
357 359 356 353 354 353 351 348 343 344 350 348 350 354 356 354 356 357 358 351 346 344 343 343 343 345 347 350 351 351 352 352 353 353 353 354 356 359
356 359 359 354 354 353 350 349 347 345 346 352 353 356 356 354 360 360 359 351 347 344 342 341 341 343 344 345 346 346 346 348 348 348 348 349 349 351
356 357 357 358 352 354 351 352 349 348 344 350 355 358 359 359 359 360 356 355 356 345 343 342 340 340 341 342 342 342 343 343 343 344 345 345 346 347
354 352 353 353 358 364 355 356 352 352 347 348 353 354 356 359 361 361 358 355 359 354 345 342 339 338 336 336 336 336 336 336 337 337 339 340 342 344
353 353 351 352 358 357 358 354 353 353 352 348 348 355 354 356 355 359 359 360 359 350 341 344 341 339 337 334 332 329 328 328 328 328 329 332 335 338
356 357 355 352 356 359 356 359 357 359 356 352 353 353 353 355 354 350 349 353 352 352 349 343 341 342 340 336 334 333 328 325 322 321 322 323 326 329
356 357 357 356 349 351 358 357 359 354 359 352 353 347 347 347 351 350 349 349 353 354 350 351 348 345 347 344 344 334 327 326 323 321 320 319 319 321
355 357 356 351 348 341 340 341 355 359 356 349 348 346 354 350 351 349 348 346 341 353 351 345 347 342 348 353 330 328 327 325 323 321 319 318 318 318
356 354 354 353 352 358 342 338 338 338 341 357 351 352 351 355 355 355 352 349 346 349 351 343 347 342 352 345 329 327 324 322 321 319 318 317 316 316
356 356 355 356 357 357 358 356 357 356 353 349 353 358 359 357 357 355 354 352 351 350 353 343 345 344 349 351 328 326 324 322 320 320 318 314 311 311
355 357 356 356 343 335 355 355 356 354 341 335 336 335 337 337 341 351 345 343 339 338 349 345 342 343 343 346 343 326 322 320 317 316 316 313 309 309
353 356 336 349 334 328 352 354 352 353 356 353 354 343 339 343 333 350 347 338 335 334 345 342 338 340 334 348 347 342 337 318 315 315 315 312 309 331
347 347 351 328 324 319 328 355 351 358 348 351 351 351 352 350 346 345 347 342 338 338 343 346 338 339 339 336 343 344 340 336 339 331 313 310 308 315
349 350 350 324 319 318 323 331 326 332 349 349 347 346 346 343 341 344 347 347 347 347 349 347 341 339 336 335 334 343 342 342 340 339 337 322 310 311
351 343 330 317 315 319 319 322 321 341 346 347 346 345 345 343 345 346 347 347 347 347 345 348 342 342 339 334 334 337 335 339 339 334 332 332 331 331
336 346 338 332 327 334 334 325 338 343 346 347 347 347 345 340 339 341 339 339 338 338 344 343 345 343 337 338 337 335 336 329 333 332 328 330 331 330
336 342 340 340 341 342 344 345 338 339 343 348 347 345 341 338 338 341 339 338 336 335 336 337 341 342 340 338 333 334 328 331 333 331 329 327 328 328
331 335 337 338 341 345 345 343 341 340 345 346 345 343 338 337 338 339 338 337 335 334 333 337 336 333 333 333 324 331 332 329 330 329 326 323 322 325
335 335 337 338 342 345 344 342 340 343 349 344 340 338 338 338 336 337 336 335 333 333 334 333 329 328 323 319 329 314 327 327 326 325 326 321 318 321
332 335 336 342 343 344 344 342 341 341 340 339 338 339 339 338 336 335 334 332 331 331 331 330 327 325 321 320 321 328 309 325 325 323 322 324 320 315
329 333 336 340 343 344 345 344 343 342 342 340 339 339 339 338 336 334 332 317 321 330 325 325 327 320 327 325 322 323 328 309 315 322 322 319 318 322
335 334 334 337 338 342 345 344 343 342 342 340 339 339 338 337 334 333 332 329 328 327 325 329 327 324 323 322 322 321 323 327 316 311 311 312 320 317
335 335 334 333 338 342 345 342 342 342 340 339 340 338 337 334 334 333 331 330 328 326 325 323 323 321 324 323 318 323 322 324 325 324 325 311 311 311
Wind_Speed
8 9 7 6 6 5 5 5 4 2 1 3 1 2 2 3 3 7 7 4 8 10 11 12 14 15 16 17 17 16 16 16 16 15 15 15 15 16
7 8 7 6 5 5 4 4 5 4 2 1 0 3 4 3 1 5 6 4 9 9 11 11 13 14 14 15 16 16 15 14 15 15 14 15 15 16
8 7 8 6 6 5 5 5 5 5 5 1 2 1 2 3 4 3 5 5 4 9 9 9 9 10 11 12 12 12 12 12 13 13 15 15 16 15
9 7 7 6 9 7 6 6 5 5 5 5 3 3 3 3 4 5 5 4 5 4 6 7 8 8 7 8 10 11 9 10 12 13 13 13 14 13
9 10 9 9 7 6 7 5 6 5 5 5 5 3 4 4 5 5 5 4 5 4 10 8 2 3 5 6 7 7 8 9 9 9 10 11 11 11
10 10 9 10 9 8 7 8 6 5 5 6 5 6 6 4 5 6 6 4 6 6 3 3 4 2 5 5 5 6 8 8 6 6 6 6 7 8
11 11 11 10 9 8 6 8 7 7 5 6 6 7 7 6 6 4 6 5 6 5 4 4 4 4 2 3 4 7 7 4 2 2 3 3 4 4
11 11 9 9 11 10 11 9 7 8 9 7 6 7 8 6 5 6 5 5 6 3 4 5 3 5 3 1 4 5 5 6 8 9 8 7 6 5
12 8 10 9 10 10 13 10 10 11 11 7 8 9 8 7 6 6 6 6 7 4 6 6 4 6 2 5 3 3 5 8 9 9 8 7 7 7
13 12 11 11 11 11 10 9 10 10 11 9 11 9 7 5 6 5 6 6 7 7 5 7 4 7 2 3 5 6 5 6 6 6 6 5 5 6
10 11 13 13 11 12 10 10 10 10 7 8 8 6 5 5 5 5 5 5 7 7 4 7 6 5 5 5 4 7 6 5 5 4 3 4 6 9
12 12 12 13 11 13 11 10 11 11 9 8 8 7 8 7 7 7 6 8 8 7 3 5 5 4 6 3 5 5 5 7 5 4 2 1 4 6
10 10 10 15 12 12 13 10 11 7 7 7 7 6 7 7 6 7 7 7 6 7 2 5 5 5 5 6 4 2 3 4 4 6 9 5 1 4
11 10 10 13 14 15 11 11 7 7 7 7 8 8 7 7 5 5 5 6 5 8 3 5 5 6 7 8 7 2 5 3 3 3 3 2 9 10
11 11 9 11 12 9 12 9 8 8 9 9 9 9 7 6 4 5 5 5 6 5 5 5 6 6 5 7 5 5 3 2 3 3 4 4 5 6
10 7 6 6 6 4 7 7 9 9 10 11 9 8 6 6 7 6 6 6 6 6 5 4 5 5 6 6 7 5 3 2 1 4 5 6 4 5
7 5 4 5 7 8 8 8 7 7 9 10 9 8 8 7 7 5 6 6 7 7 5 4 4 4 4 5 5 2 2 4 4 4 6 7 5 5
9 9 10 9 11 11 11 10 9 10 10 10 9 8 7 7 7 6 6 6 7 6 6 3 3 3 4 4 2 4 4 4 4 3 5 7 6 4
6 10 12 11 12 12 12 11 11 11 10 9 8 8 8 7 5 7 6 6 6 5 3 3 2 3 5 7 2 1 6 4 5 5 3 4 6 6
8 9 8 11 12 12 12 11 11 10 10 9 9 8 8 8 7 7 6 7 6 5 5 4 4 3 4 5 3 2 4 6 5 5 5 2 4 7
7 8 10 10 9 10 11 10 12 12 11 9 9 8 8 8 8 7 6 3 2 5 5 5 3 2 1 1 5 4 3 9 7 6 4 4 4 2
8 10 12 10 10 11 10 11 11 11 11 10 9 8 8 8 8 8 7 7 7 5 4 3 5 4 3 5 5 2 3 1 9 11 11 10 5 4
12 12 12 11 10 11 11 10 12 12 11 10 9 9 9 9 8 7 7 7 6 5 4 4 4 4 5 4 2 3 4 5 3 4 4 17 17 17
Wind_Direction
234 231 218 228 227 227 231 245 266 248 245 100 357 59 303 270 273 261 258 222 222 235 242 242 241 239 240 242 241 242 243 246 244 241 238 240 244 248
230 227 208 206 213 211 221 237 240 261 263 195 171 329 317 308 266 266 259 253 226 231 239 243 244 243 241 242 242 242 245 246 249 251 251 250 244 243
224 232 216 195 214 208 204 219 218 221 257 207 270 324 282 286 308 260 261 261 243 221 242 249 250 251 243 242 244 244 246 248 250 250 251 252 249 243
210 214 227 211 228 203 208 209 213 209 252 260 314 272 276 316 290 276 270 258 267 165 258 262 251 248 245 237 240 245 251 252 253 253 259 264 261 257
209 210 215 214 227 209 219 216 210 213 215 250 265 258 286 289 289 271 281 290 257 223 221 197 195 272 268 260 257 259 264 264 268 269 268 271 277 278
214 215 220 214 221 212 219 222 225 226 223 237 255 260 260 267 271 281 276 267 290 291 269 244 313 285 298 325 310 333 325 299 281 286 292 284 284 286
220 216 217 217 219 222 220 224 229 238 226 227 252 255 259 254 257 284 275 291 273 268 280 275 294 301 314 143 19 351 341 339 349 307 312 314 307 304
221 222 227 194 217 220 233 256 245 229 235 244 245 253 261 251 258 262 267 267 283 182 255 280 274 289 315 312 32 20 38 58 69 72 70 63 53 33
220 215 221 221 214 224 212 221 226 235 248 237 245 256 265 256 257 239 245 256 264 271 253 278 265 278 266 142 135 86 77 87 90 85 74 53 31 14
217 216 218 227 221 220 236 232 234 228 225 226 238 259 248 255 237 258 279 275 262 255 246 270 269 273 244 200 160 121 108 106 101 92 71 42 5 336
226 215 219 224 217 203 231 239 237 237 204 230 248 269 259 241 262 242 243 267 277 274 183 265 276 281 268 244 171 161 152 142 111 98 69 30 348 301
223 228 211 230 209 184 217 230 234 240 227 231 220 214 212 197 191 230 256 269 283 282 236 238 272 285 276 162 187 175 186 166 175 165 153 76 336 329
234 222 228 203 216 185 207 224 229 238 226 239 235 222 206 211 220 217 236 253 256 256 233 262 275 263 253 285 218 210 216 173 218 193 197 199 223 310
233 235 234 185 200 197 192 223 212 209 236 225 224 222 221 221 222 216 217 232 245 265 310 254 273 286 288 279 281 215 210 207 244 250 277 209 209 204
241 233 222 188 199 198 215 211 180 221 225 223 222 224 219 221 202 206 205 205 226 234 230 239 266 295 287 284 288 268 284 212 246 277 313 289 306 312
256 229 218 220 219 244 168 192 221 218 225 225 222 220 202 200 212 222 231 218 244 226 195 213 231 236 252 249 255 274 285 288 197 274 302 290 301 298
199 203 179 189 205 213 220 215 206 208 216 221 218 208 207 211 217 212 233 234 247 257 227 180 204 241 272 279 275 290 231 248 243 297 289 305 309 330
181 195 198 199 211 216 213 210 202 208 209 204 209 211 211 209 218 211 225 232 248 253 251 223 207 228 228 188 269 262 237 287 309 298 282 299 303 320
227 211 190 198 211 215 212 204 205 204 203 205 209 209 210 217 200 219 217 235 234 234 212 169 190 246 275 279 134 239 293 295 293 274 286 278 287 308
202 238 236 221 206 207 206 203 203 199 202 203 207 211 211 216 206 212 217 227 228 219 202 182 212 231 275 307 302 314 197 295 295 305 316 306 279 273
200 217 241 243 226 218 205 203 206 206 205 201 205 208 209 202 201 208 213 230 215 220 207 209 186 94 127 252 250 238 159 212 264 301 310 301 304 304
248 237 236 230 226 226 222 206 207 203 200 201 204 201 195 198 202 204 208 194 206 212 210 143 149 168 205 247 292 287 249 205 204 225 243 263 303 316
240 230 236 233 226 224 211 207 205 199 199 195 195 192 188 197 203 200 199 207 197 186 171 172 174 205 243 249 297 259 245 265 296 290 250 201 236 257